Location: Ajisawe
(8.4333°N, 4.3833°E)
Time: 01:07:26
(UTC+00:00)

Courier 1B Rocket - Pass Details

Date: 01 May 2021
Orbit: 920 x 1202 km, 28.3° (Epoch: 13 May)

Event Time Altitude Azimuth Distance (km) Brightness Sun altitude
Rises 09:30:22 0° 214° (SW) 3,935 7.9 57.7°
Reaches altitude 10° 09:33:55 10° 200° (SSW) 2,925 7.4 58.5°
Maximum altitude 09:39:15 22° 151° (SSE) 2,080 7.2 59.8°
Drops below altitude 10° 09:44:19 10° 102° (ESE) 2,766 7.9 61.0°
Sets 09:47:32 0° 88° (E) 3,669 8.4 61.8°
